Flag for China Weather past 2 weeks in Xiamen, Fujian, China

Now
79 °F

Cloudy.


Feels Like: 83 °F
Forecast: 80 / 88 °F
Wind: 3 mph from Southwest

Location: Xiamen Airport

Current Time: May 27, 2015 at 1:53:11 PM

Latest Report: May 27, 2015 at 1:00 PM


Visibility: 4 mi

Pressure: 29.77 "Hg

Humidity: 94%

Dew point: 77 °F

Location of XiamenLocation

Historic Weather in Xiamen — Graph

°F

Xiamen temperature yesterday

Maximum temperature yesterday: 73 °F (at 11:00 AM)
Minimum temperature yesterday: 70 °F (at 2:00 AM)
Average temperature yesterday: 72 °F

Past Weeks' High & Low Weather Summary

 TemperatureHumidityPressure
High91 °F (May 16, 2:00 PM)100% (May 15, 2:00 AM)29.95 "Hg (May 15, 2:00 AM)
Low64 °F (May 21, 12:00 PM)26% (May 12, 12:00 PM)29.65 "Hg (May 19, 4:00 PM)
Average76 °F87%29.81 "Hg
* Reported May 12 12:00 Noon — May 27 12:00 Noon, Xiamen, Weather by CustomWeather, © 2015

Note: Actual official high and low records may vary slightly from our data, if they occured in-between our weather recording intervals... More about our weather records

Advertising

Xiamen weather history for previous 24 hours

 ConditionsComfort  
Time TempWeatherWind HumidityBarometerVisibility
12:00 PM
Wed, May 27
79 °FBroken clouds.6 mph89%29.80 "Hg4 mi
11:00 AM77 °FCloudy.6 mph94%29.80 "Hg4 mi
10:00 AM75 °FFog.3 mph100%29.83 "Hg2 mi
9:00 AM73 °FFog.3 mph100%29.83 "Hg2 mi
8:00 AM73 °FFog.1 mph100%29.83 "Hg2 mi
7:00 AM72 °FFog.1 mph100%29.80 "Hg1 mi
6:00 AM72 °FFog.1 mph100%29.80 "Hg1 mi
5:00 AM72 °FFog.1 mph100%29.80 "Hg1 mi
4:00 AM70 °FFog.1 mph100%29.80 "Hg1 mi
3:00 AM70 °FFog.3 mph100%29.80 "Hg1 mi
2:00 AM72 °FFog.1 mph100%29.83 "Hg1 mi
1:00 AM72 °FFog.3 mph100%29.83 "Hg2 mi
12:00 AM72 °FFog.3 mph100%29.83 "Hg2 mi
11:00 PM
Tue, May 26
72 °FFog.6 mph100%29.83 "Hg2 mi
10:00 PM72 °FFog.3 mph100%29.83 "Hg2 mi
9:00 PM72 °FFog.3 mph100%29.83 "Hg2 mi
8:00 PM72 °FFog.6 mph100%29.83 "Hg2 mi
7:00 PM72 °FFog.6 mph100%29.83 "Hg2 mi
6:00 PM72 °FFog.3 mph100%29.83 "Hg2 mi
5:00 PM72 °FDrizzle. Fog.3 mph100%29.80 "Hg2 mi
4:00 PM73 °FCloudy.1 mph94%29.80 "Hg4 mi
3:00 PM73 °FCloudy.1 mph94%29.83 "Hg5 mi
2:00 PM73 °FCloudy.3 mph94%29.83 "HgN/A
1:00 PM73 °FCloudy.6 mph94%29.83 "HgN/A
Weather by CustomWeather, © 2015

See weather overviewHow to use our weather pages